Flag for U.S.A. Weather past 2 weeks in Des Moines, Iowa, U.S.A.

Now
42 °F

Passing clouds.


Feels Like: 38 °F
Forecast: 39 / 62 °F
Wind: 6 mph from Northeast

Location: Des Moines International Airport

Current Time: Apr 26, 2015 at 6:57:42 AM

Latest Report: Apr 26, 2015 at 5:54 AM


Visibility: 10 mi

Pressure: 29.98 "Hg

Humidity: 79%

Dew point: 36 °F

Location of Des MoinesLocation

Historic Weather in Des Moines — Graph

°F

Des Moines temperature yesterday

Maximum temperature yesterday: 52 °F (at 4:54 PM)
Minimum temperature yesterday: 45 °F (at 7:54 AM)
Average temperature yesterday: 49 °F

Past Weeks' High & Low Weather Summary

 TemperatureHumidityPressure
High80 °F (Apr 17, 2:54 PM)93% (Apr 18, 7:54 PM)30.29 "Hg (Apr 18, 7:54 PM)
Low34 °F (Apr 22, 4:54 AM)17% (Apr 14, 1:54 PM)29.54 "Hg (Apr 19, 3:54 PM)
Average56 °F53%29.93 "Hg
* Reported Apr 11 5:54 AM — Apr 26 5:54 AM, Des Moines, Weather by CustomWeather, © 2015

Note: Actual official high and low records may vary slightly from our data, if they occured in-between our weather recording intervals... More about our weather records

Advertising

Des Moines weather history for previous 24 hours

 ConditionsComfort  
Time TempWeatherWind HumidityBarometerVisibility
5:54 AM
Sun, Apr 26
42 °FPassing clouds.6 mph79%29.98 "Hg10 mi
4:54 AM46 °FPassing clouds.6 mph71%29.97 "Hg10 mi
3:54 AM48 °FOvercast.7 mph66%29.95 "Hg10 mi
2:54 AM48 °FOvercast.8 mph68%29.94 "Hg10 mi
1:54 AM48 °FOvercast.7 mph68%29.93 "Hg10 mi
12:54 AM48 °FOvercast.7 mph71%29.92 "Hg10 mi
11:54 PM
Sat, Apr 25
48 °FPassing clouds.9 mph68%29.91 "Hg10 mi
10:54 PM49 °FOvercast.13 mph69%29.90 "Hg10 mi
9:54 PM50 °FMostly cloudy.16 mph68%29.88 "Hg10 mi
8:54 PM51 °FMostly cloudy.12 mph69%29.86 "Hg10 mi
7:54 PM51 °FOvercast.14 mph69%29.82 "Hg10 mi
6:54 PM52 °FOvercast.20 mph72%29.79 "Hg10 mi
5:54 PM52 °FOvercast.14 mph72%29.77 "Hg10 mi
4:54 PM52 °FOvercast.15 mph77%29.73 "Hg10 mi
3:54 PM50 °FMostly cloudy.14 mph83%29.72 "Hg6 mi
2:54 PM49 °FOvercast.16 mph84%29.70 "Hg6 mi
1:54 PM49 °FOvercast.14 mph80%29.68 "Hg10 mi
12:54 PM48 °FLow clouds.14 mph83%29.65 "Hg10 mi
11:54 AM48 °FLow clouds.14 mph86%29.64 "Hg8 mi
10:54 AM47 °FLow clouds.15 mph86%29.63 "Hg8 mi
9:54 AM46 °FLight rain. Mostly cloudy.13 mph86%29.62 "Hg7 mi
8:54 AM45 °FLight rain. Fog.22 mph90%29.59 "Hg5 mi
7:54 AM45 °FLight rain. Fog.17 mph90%29.61 "Hg4 mi
6:54 AM46 °FHeavy rain. Fog.16 mph89%29.59 "Hg2 mi
Weather by CustomWeather, © 2015

See weather overviewHow to use our weather pages